Location: Eastlake (historical)
(39.0077°N, 122.6678°W)
Time: 04:12:03
(UTC+00:00)

Cosmos 1937 Rocket - Pass Details

Date: 25 November 2020
Orbit: 745 x 781 km, 74.0° (Epoch: 27 January)

Event Time Altitude Azimuth Distance (km) Brightness Sun altitude
Rises 14:12:29 0° 197° (SSW) 3,172 6.7 -10.3°
Reaches altitude 10° 14:14:50 10° 198° (SSW) 2,254 6.0 -9.8°
Maximum altitude 14:19:56 88° 286° (WNW) 754 3.5 -8.9°
Drops below altitude 10° 14:25:07 10° 18° (NNE) 2,282 5.9 -8.0°
Sets 14:27:30 0° 19° (NNE) 3,216 6.7 -7.5°
